Location: Arroyo Grande
(40.2671°N, 4.2512°W)
Time: 20:00:22
(UTC+00:00)

Lacrosse 5 - Pass Details

Date: 03 February 2023
Orbit: 714 x 724 km, 57.0° (Epoch: 09 March)

Event Time Altitude Azimuth Distance (km) Brightness Sun altitude
Rises 20:07:39 0° 274° (W) 3,133 6.4 -28.9°
Reaches altitude 10° 20:10:44 10° 293° (WNW) 2,215 5.2 -29.4°
Maximum altitude 20:14:17 19° 337° (NNW) 1,705 4.0 -30.1°
Enters shadow 20:15:03 18° 349° (NNW) 1,732 3.9 -30.3°
